Temp_Advection
nan nan nan nan nan nan nan nan nan nan nan nan nan nan nan nan nan nan nan nan nan nan nan nan nan nan nan nan nan nan nan nan nan nan nan nan nan nan nan nan nan nan nan nan
nan -0 0 -0 -1 -0 -0 -3 -0 -0 2 -1 -1 -2 -0 0 0 -0 -0 -0 -0 0 0 -0 -0 1 -1 0 -0 0 1 0 -0 -0 -0 -0 0 -0 0 0 0 0 -0 nan
nan 0 0 -1 -1 -1 -1 -1 -1 -1 -1 -3 -1 -1 0 0 -0 0 -0 -0 0 0 0 0 0 0 -0 0 0 0 0 -0 0 -0 -0 0 0 -0 0 1 -0 -0 -1 nan
nan 1 -0 -1 -2 -1 0 -3 -1 -2 -2 -1 -1 0 -0 -0 -0 -0 0 0 -0 -0 0 0 0 0 -0 -0 0 -0 -0 0 -0 0 0 -0 -0 -0 0 0 -0 -0 -1 nan
nan 0 -0 -1 -2 0 -1 -2 -0 -1 -1 -1 0 0 -1 -0 -1 0 -0 -0 -0 0 0 0 0 0 -0 -0 -1 -0 0 0 0 -0 -0 0 -0 -0 -0 -0 -0 -0 0 nan
nan 0 -1 -1 -1 0 -2 -2 0 0 1 -1 -0 -1 -0 -0 -0 0 -0 0 0 1 -0 -0 -0 0 0 0 0 0 0 0 0 0 -0 -0 0 -2 -1 -0 -0 0 -0 nan
nan -1 -1 -2 -1 -1 -2 -1 0 0 1 -0 -0 -0 -0 0 1 -0 0 1 1 -0 1 0 0 0 0 -0 -0 0 0 0 0 0 0 -0 -1 0 -0 -0 -1 0 0 nan
nan 0 -0 -3 -1 -2 -1 -0 0 0 0 0 -0 0 0 1 0 0 0 -0 0 1 0 -0 -0 -0 -0 0 0 0 0 0 -0 0 -1 -1 -0 0 0 0 -0 -0 -0 nan
nan 0 -2 -3 -1 -2 -0 -0 -1 -0 -1 -0 0 0 1 0 -0 -0 -0 0 1 0 0 0 -0 -0 -0 -0 0 0 -0 0 0 -0 0 -0 0 -0 0 0 0 -0 -0 nan
nan -1 -3 -2 -2 -0 1 -0 -0 0 -0 1 1 0 0 0 0 -0 -1 -0 0 -0 -0 0 -0 0 -0 0 -0 0 0 0 0 -0 -0 -1 0 -0 0 0 -0 -0 -0 nan
nan -3 -3 -2 -1 -0 -1 -0 0 0 0 0 1 1 1 1 1 -0 -0 -1 -0 -0 -0 -0 0 0 0 -0 0 -0 -0 -0 -0 -0 -0 -1 1 -0 -0 -0 -0 -0 -0 nan
nan -3 -2 -2 -2 -0 -1 -0 0 1 1 -0 0 1 1 1 0 1 -1 -0 -1 -0 -0 -0 -0 -0 0 0 0 -0 -0 -0 0 -0 -0 -0 0 -0 0 0 -0 -0 -0 nan
nan -1 -1 -1 -2 -1 0 0 0 -0 -0 -0 0 0 1 0 1 1 -0 0 0 0 -0 -0 -0 -0 -0 0 -0 0 0 0 0 -0 0 0 0 0 0 0 0 -0 -0 nan
nan -1 -1 -1 -1 0 1 0 1 -0 -1 0 0 0 0 -0 0 1 0 0 1 0 0 -0 -0 0 -0 -0 -0 0 -0 -0 -0 -0 -0 0 0 0 0 -0 -0 -0 -0 nan
nan -1 -1 -1 -0 0 0 0 1 0 0 -0 0 0 0 0 1 0 0 1 0 -1 -0 0 0 -0 -0 0 0 -0 0 0 0 -0 -1 -0 -0 -1 -0 -1 -1 -1 -1 nan
nan -1 -1 -0 -0 -0 -0 0 0 0 0 -0 -0 -0 0 1 1 1 1 1 1 -0 -1 -0 -0 0 -0 0 -0 -0 -0 -0 -0 -0 -0 -0 -0 -0 -1 -1 -1 -1 -1 nan
nan -0 0 1 2 -0 -0 -0 -0 0 0 -0 0 -0 -0 0 0 0 0 0 1 0 -0 -0 0 0 0 -0 -0 -0 -0 -0 -0 -1 -1 0 -1 -1 -1 -1 -1 -1 -1 nan
nan 0 1 1 1 -0 -0 0 0 1 1 0 -0 -0 -0 -0 0 -0 -0 0 0 -1 -0 0 0 0 0 -0 -0 -0 -0 -0 -0 -0 -0 -0 -0 -0 -1 -0 -0 -1 -1 nan
nan 1 -0 0 0 0 0 0 0 1 0 0 0 0 0 -0 -0 0 0 0 -0 -0 0 0 0 0 0 -0 0 -0 -0 -0 -0 -0 -0 -0 -1 -1 -0 -0 0 -0 -0 nan
nan 1 1 0 -0 -0 -0 0 0 -0 0 0 0 0 0 0 -0 0 0 -0 0 0 -0 0 0 -0 -0 -0 0 0 0 -0 0 0 -0 -0 -1 -1 -0 -0 -0 0 0 nan
nan -1 -0 1 1 0 0 0 -0 -0 -0 -1 0 0 0 -0 -0 -0 -0 0 0 0 0 0 -0 0 0 0 0 0 0 0 -0 -0 -0 -1 -0 -0 -0 0 -0 -0 -0 nan
nan -1 -1 0 0 -0 -0 -0 -0 -0 -0 -0 0 -0 0 0 0 -0 -0 0 0 0 0 0 0 -0 0 0 0 0 0 -0 -0 -0 -0 -0 -0 -0 -0 -0 -0 -0 -0 nan
nan -0 -0 -1 -0 -0 -0 0 -0 -0 -0 0 0 0 0 0 0 0 0 0 0 0 0 0 -0 -0 0 0 0 0 0 0 -0 -0 -0 -0 0 -0 -0 -0 -0 -0 -0 nan
nan -1 -0 -0 -0 -0 -0 -0 -0 -0 0 0 -0 0 0 -0 0 0 -0 -0 0 0 0 0 -0 -0 0 0 0 0 -0 0 0 0 0 -0 -0 -0 -0 -0 -0 -0 -0 nan
nan -0 -0 -0 -0 -0 -0 0 0 0 0 0 0 0 -0 -0 -0 -0 0 0 -0 0 -0 -0 0 0 0 0 0 0 0 -0 -0 0 0 -0 -0 -0 -0 -0 -0 -0 -0 nan
nan -0 -0 0 0 -0 -0 -0 0 0 0 0 -0 0 -0 -0 0 0 0 -0 0 -0 -0 0 0 0 0 0 0 0 0 0 0 0 0 0 0 0 -0 -0 -0 -0 -0 nan
nan nan nan nan nan nan nan nan nan nan nan nan nan nan nan nan nan nan nan nan nan nan nan nan nan nan nan nan nan nan nan nan nan nan nan nan nan nan nan nan nan nan nan nan
Wind_Speed
42 43 41 42 39 38 33 25 11 21 28 16 20 14 22 11 11 10 8 7 9 11 11 13 11 13 6 8 8 10 6 5 5 13 5 5 10 8 11 5 6 3 3 8
41 40 41 40 41 46 39 28 18 20 28 13 13 20 21 13 10 12 12 11 9 8 10 10 11 11 6 6 8 5 7 7 7 7 6 7 9 10 9 4 1 7 3 4
44 39 39 40 41 46 38 28 11 11 15 30 19 23 18 17 7 9 12 10 11 10 8 6 7 8 4 5 5 0 0 12 10 10 5 1 12 12 12 13 7 9 10 13
43 40 38 43 41 46 35 27 15 20 13 21 21 21 19 21 12 10 15 11 15 13 8 9 8 9 6 6 6 6 5 8 12 12 5 5 8 9 13 16 15 13 11 11
41 38 35 44 40 46 36 22 22 28 27 33 20 19 22 23 18 14 14 10 15 11 8 11 10 12 10 7 10 9 5 5 2 5 8 8 11 12 13 14 16 16 16 15
41 40 32 44 45 54 30 25 21 29 21 23 18 17 19 21 15 3 5 12 8 10 5 8 10 9 4 3 7 10 5 5 4 5 3 4 6 15 16 15 16 12 15 15
34 40 45 45 50 57 34 18 17 16 13 17 18 19 20 17 16 11 6 7 8 6 16 16 15 13 10 7 6 5 5 4 2 1 1 1 4 1 4 8 14 16 14 13
36 38 46 49 53 55 37 18 16 18 4 15 24 20 18 19 11 9 13 5 5 21 10 4 4 2 2 3 3 3 3 4 2 3 6 8 9 5 1 3 6 6 7 7
34 44 41 50 53 55 38 13 16 18 12 13 28 19 24 10 10 7 5 10 17 6 2 2 5 4 4 5 6 3 4 1 4 3 3 4 4 4 1 1 6 7 6 5
47 43 37 47 52 54 35 10 15 19 14 22 18 15 17 20 12 6 8 10 5 2 2 2 3 4 2 4 5 4 3 1 5 6 3 5 3 3 2 4 3 5 8 10
46 37 42 51 51 50 33 9 16 19 13 10 13 14 17 22 19 7 12 8 3 3 3 3 3 1 4 2 1 5 6 6 3 2 2 5 7 6 1 4 6 7 9 10
39 44 45 47 52 49 28 12 20 17 11 7 7 11 15 14 18 17 20 8 13 10 4 2 2 2 2 0 3 2 3 3 1 5 1 5 7 4 4 6 9 11 12 14
41 42 44 48 52 50 27 13 22 13 7 6 6 7 11 18 20 14 8 7 9 8 4 6 2 3 4 4 4 3 3 3 3 1 3 5 7 10 9 8 8 10 12 14
37 39 43 47 52 48 22 10 22 14 9 4 4 6 5 14 17 20 12 10 15 15 9 4 3 3 5 3 1 2 2 7 5 6 11 8 6 6 4 7 9 11 11 11
36 39 42 45 53 47 11 17 20 15 9 5 8 7 1 6 14 14 13 13 16 12 5 3 2 5 4 2 0 3 6 3 3 3 7 6 8 8 8 9 7 6 7 8
37 39 40 45 53 49 13 7 12 12 11 5 5 3 4 9 12 13 14 11 8 6 6 4 5 4 4 4 4 5 4 3 4 6 10 9 8 4 7 6 8 9 10 10
34 37 40 45 49 46 11 5 9 11 10 3 5 5 3 8 9 6 8 7 6 3 5 3 5 4 6 3 4 8 3 4 3 5 7 4 9 6 8 9 12 12 13 12
36 37 38 39 41 24 12 7 5 12 15 3 4 3 5 3 3 4 5 3 4 6 4 3 3 5 2 3 7 4 5 3 4 7 7 8 8 9 10 9 7 11 15 14
38 40 42 39 23 10 11 7 7 18 11 4 3 6 4 4 4 4 3 2 2 2 2 2 5 3 4 4 3 3 5 4 2 6 8 9 10 10 11 11 13 14 14 11
38 37 21 10 10 24 20 11 7 7 7 1 3 4 4 4 3 3 3 3 3 3 2 5 2 3 4 4 5 7 8 8 5 6 7 10 12 12 13 14 14 11 8 6
19 6 4 14 20 15 3 1 2 3 3 6 4 4 5 3 3 3 1 3 1 4 3 4 4 3 6 8 9 6 8 10 11 12 13 16 16 14 13 10 7 4 3 5
15 22 22 11 5 2 4 2 2 2 2 2 3 4 5 4 3 4 3 3 2 4 6 3 3 4 11 11 10 11 12 15 17 17 16 14 12 9 7 5 4 5 6 7
18 7 5 4 5 5 3 3 2 2 2 2 3 3 3 4 5 5 2 3 2 6 2 3 2 13 14 16 14 13 13 14 14 12 11 10 8 6 5 6 6 6 6 7
8 7 6 4 3 4 2 3 3 2 3 9 9 6 3 3 3 1 3 1 1 3 3 3 5 16 21 18 14 14 13 14 12 10 8 7 6 6 6 6 6 5 6 7
7 6 4 4 4 6 4 4 5 5 5 6 5 5 3 3 3 2 4 2 3 3 0 2 14 23 22 14 12 12 12 12 9 7 6 5 4 3 3 3 4 5 5 8
5 7 4 3 4 5 8 11 11 6 5 6 5 2 2 3 2 3 2 2 2 3 2 13 22 23 14 12 11 11 10 8 7 6 5 2 2 1 1 1 3 6 9 13
4 5 11 10 12 9 7 8 6 6 4 2 2 2 4 1 1 2 2 2 2 9 15 17 19 15 12 11 9 7 6 9 8 7 4 4 3 2 2 3 7 10 13 15
Wind_Direction
215 217 215 216 209 199 192 188 209 177 181 183 204 212 214 213 183 195 209 276 190 224 189 207 220 226 219 170 190 207 207 243 181 223 79 310 302 257 206 226 212 228 306 282
215 214 211 215 209 196 179 193 179 177 173 196 201 212 212 193 196 195 195 203 211 213 205 207 222 217 85 176 210 223 183 225 220 224 203 216 238 228 236 223 324 238 239 279
218 212 211 212 212 193 180 183 180 158 197 207 196 207 194 200 219 190 196 200 180 187 200 216 196 195 156 190 206 223 133 242 227 243 269 274 208 238 218 215 225 244 246 283
216 209 209 206 212 189 184 207 196 180 181 200 201 205 202 197 179 222 192 190 201 198 210 192 209 187 161 184 179 196 236 236 235 261 286 290 281 256 222 233 237 257 266 278
209 211 205 202 203 185 200 211 192 181 171 197 208 194 215 195 192 181 192 210 201 204 202 208 217 199 192 185 181 198 202 224 252 250 241 260 262 254 251 240 249 255 263 281
205 208 209 201 193 185 193 209 196 180 171 192 203 192 210 196 180 208 227 210 166 202 95 60 45 75 77 126 180 197 186 172 181 243 2 297 290 239 249 247 248 253 266 273
206 208 199 204 194 187 187 205 178 170 177 187 195 188 211 199 182 172 157 185 188 116 124 103 84 86 89 97 71 155 167 176 167 224 218 287 257 24 306 272 264 254 265 270
204 213 202 203 191 184 193 198 186 184 141 186 194 192 201 195 155 140 137 78 118 143 148 130 123 111 88 116 82 128 219 164 153 184 220 286 280 177 234 233 281 37 324 325
208 209 205 196 185 179 193 191 202 158 150 195 191 181 198 160 155 148 100 117 131 135 129 134 194 196 217 159 148 124 94 121 224 164 214 234 78 80 100 213 251 64 37 15
198 202 198 184 183 179 187 200 183 167 162 190 180 195 200 195 178 151 136 159 155 170 112 122 196 202 333 187 190 189 135 220 212 204 252 283 71 137 202 241 44 13 344 322
203 190 173 180 179 178 190 197 175 172 158 132 187 203 188 203 201 162 139 140 149 160 169 176 179 148 194 215 200 182 188 175 188 167 208 259 141 140 214 29 313 321 318 315
163 169 175 178 178 175 175 184 169 167 186 127 168 184 196 198 200 204 177 205 157 177 177 73 112 125 38 82 227 183 222 231 278 216 247 113 179 315 304 305 302 306 307 303
170 172 175 178 177 178 172 170 168 153 127 115 160 180 205 197 197 173 184 202 157 171 141 145 129 145 168 166 222 206 213 185 230 304 155 244 259 281 285 289 285 298 304 306
171 174 178 177 175 175 160 171 164 172 143 132 154 204 192 203 204 202 189 183 171 158 137 118 133 125 219 184 310 207 356 164 230 247 274 280 280 285 300 312 312 306 311 317
171 175 176 175 173 174 155 172 165 168 180 141 150 146 143 190 191 188 195 182 163 151 124 105 130 125 130 93 67 232 194 247 216 254 359 329 312 357 331 318 343 348 347 349
173 174 174 174 175 175 153 147 162 151 177 123 152 127 88 98 118 127 137 148 141 153 124 121 117 140 179 154 199 88 75 24 354 299 315 306 303 36 25 59 58 63 64 65
165 169 171 171 175 178 196 185 176 186 181 159 133 131 127 129 135 119 108 89 102 135 117 91 135 138 171 152 208 109 45 1 28 357 331 199 42 59 65 81 82 82 83 81
155 157 161 163 168 174 177 128 147 197 185 236 140 101 148 129 91 88 59 82 117 47 96 97 119 114 181 219 101 67 14 343 68 40 60 89 97 91 89 96 96 81 84 86
143 146 148 146 158 163 156 139 167 169 215 238 139 141 146 123 79 82 72 109 94 100 100 140 151 161 199 92 113 61 32 35 67 89 87 94 97 93 91 94 92 91 91 88
128 130 137 143 145 121 114 168 183 184 220 227 92 100 124 164 121 84 123 51 140 143 125 144 208 146 112 113 111 98 75 62 128 140 99 101 96 99 101 99 97 91 87 71
117 92 75 133 128 133 156 191 22 5 57 32 72 89 118 89 135 134 28 128 99 155 145 198 174 193 152 136 122 100 87 89 89 99 104 107 107 107 106 100 92 82 49 2
106 131 138 131 119 112 91 54 44 29 95 41 86 86 94 97 102 109 139 110 133 168 139 179 212 121 145 145 131 114 109 108 106 106 105 105 101 102 112 97 48 22 14 14
102 78 68 27 11 60 67 148 97 101 41 83 123 82 78 97 82 82 108 125 139 148 165 216 44 145 151 143 131 127 124 119 116 111 107 103 98 90 76 64 50 46 37 26
57 44 44 13 51 53 20 6 39 63 100 100 97 73 63 82 75 36 117 57 188 193 225 200 143 156 151 142 141 139 134 132 121 116 110 99 93 79 67 64 58 47 35 18
63 38 65 69 99 63 63 71 75 74 93 79 85 74 74 47 103 60 117 134 220 220 66 123 147 158 149 148 146 139 142 136 119 121 123 113 93 73 55 42 26 18 4 345
61 46 77 89 99 57 50 60 58 65 73 71 59 76 67 73 68 167 188 207 194 105 90 141 157 154 151 147 145 136 154 145 140 143 147 155 192 230 320 331 318 319 325 335
57 44 61 80 76 66 61 60 49 65 59 56 40 53 49 91 138 113 7 31 58 125 136 143 158 156 156 152 154 166 151 142 154 171 204 212 211 243 272 309 322 336 330 332
Height
1394 1404 1413 1421 1429 1445 1455 1461 1460 1461 1463 1474 1472 1466 1460 1461 1460 1463 1462 1462 1459 1463 1464 1471 1470 1471 1471 1479 1480 1482 1480 1482 1495 1489 1484 1486 1483 1482 1486 1503 1502 1503 1508 1496
1387 1396 1405 1413 1421 1432 1444 1451 1452 1460 1462 1459 1461 1458 1456 1458 1457 1458 1461 1462 1460 1462 1465 1473 1469 1471 1482 1485 1483 1480 1483 1486 1497 1492 1490 1487 1487 1484 1485 1486 1499 1500 1513 1494
1379 1387 1397 1404 1413 1428 1441 1441 1441 1453 1458 1454 1453 1453 1449 1458 1456 1454 1456 1457 1460 1464 1466 1466 1470 1473 1483 1486 1484 1487 1487 1481 1484 1492 1481 1475 1487 1482 1482 1488 1498 1496 1490 1482
1372 1381 1389 1397 1407 1424 1436 1428 1422 1427 1439 1442 1445 1447 1449 1450 1453 1455 1456 1458 1459 1461 1467 1467 1471 1471 1483 1486 1488 1488 1486 1487 1481 1478 1482 1481 1479 1478 1479 1483 1482 1488 1482 1475
1364 1372 1381 1389 1401 1420 1428 1416 1414 1423 1432 1441 1440 1442 1442 1443 1445 1450 1453 1451 1454 1456 1462 1465 1466 1469 1474 1476 1485 1484 1486 1486 1488 1493 1483 1485 1484 1478 1476 1475 1477 1474 1473 1475
1359 1367 1374 1383 1397 1407 1415 1414 1413 1416 1424 1433 1436 1436 1439 1439 1442 1452 1448 1450 1453 1457 1462 1466 1468 1469 1471 1471 1477 1481 1485 1491 1495 1492 1495 1493 1503 1485 1476 1473 1471 1474 1479 1473
1352 1360 1368 1378 1389 1399 1411 1410 1412 1413 1425 1425 1432 1437 1440 1438 1441 1448 1452 1452 1452 1466 1469 1472 1474 1476 1478 1479 1481 1481 1491 1489 1494 1495 1510 1517 1470 1471 1472 1472 1468 1467 1470 1471
1347 1355 1362 1374 1386 1399 1405 1411 1411 1417 1424 1425 1432 1435 1437 1440 1444 1449 1453 1459 1460 1465 1468 1472 1478 1482 1486 1486 1484 1485 1485 1488 1496 1503 1490 1477 1471 1471 1475 1476 1473 1469 1473 1472
1342 1350 1360 1371 1385 1395 1403 1405 1407 1409 1419 1424 1428 1433 1438 1440 1444 1455 1461 1463 1464 1467 1468 1471 1476 1479 1472 1481 1484 1488 1489 1490 1489 1498 1503 1506 1476 1477 1479 1478 1478 1478 1478 1479
1338 1347 1356 1371 1382 1393 1401 1407 1408 1411 1417 1423 1428 1430 1435 1440 1442 1446 1459 1464 1466 1467 1468 1478 1474 1473 1470 1479 1485 1499 1493 1494 1496 1494 1497 1482 1471 1478 1480 1485 1485 1481 1482 1481
1336 1345 1356 1369 1380 1391 1400 1405 1406 1410 1415 1424 1429 1431 1435 1439 1440 1447 1455 1461 1463 1467 1471 1473 1470 1476 1473 1474 1472 1481 1483 1488 1495 1493 1505 1497 1477 1480 1483 1480 1480 1480 1481 1480
1338 1348 1358 1369 1380 1391 1400 1405 1407 1412 1418 1424 1428 1431 1433 1437 1443 1444 1450 1446 1451 1456 1458 1466 1471 1482 1485 1475 1481 1476 1480 1476 1476 1479 1475 1475 1477 1477 1478 1480 1480 1480 1480 1480
1339 1349 1359 1370 1381 1391 1400 1407 1408 1413 1419 1426 1429 1432 1434 1435 1438 1440 1444 1448 1449 1453 1456 1464 1469 1478 1476 1485 1473 1470 1473 1478 1479 1479 1470 1473 1475 1476 1477 1478 1479 1479 1478 1477
1342 1351 1361 1372 1382 1393 1401 1408 1408 1414 1419 1425 1430 1430 1434 1433 1436 1439 1442 1444 1446 1450 1455 1460 1468 1472 1470 1474 1471 1472 1473 1476 1474 1474 1471 1470 1473 1475 1476 1477 1477 1477 1476 1476
1345 1354 1363 1373 1384 1395 1403 1405 1408 1413 1418 1424 1429 1431 1432 1431 1433 1437 1440 1443 1445 1449 1455 1460 1463 1466 1471 1476 1475 1472 1472 1469 1475 1474 1471 1473 1473 1475 1477 1477 1476 1476 1476 1475
1348 1356 1365 1375 1386 1398 1403 1408 1410 1412 1416 1423 1426 1432 1433 1433 1435 1437 1440 1445 1446 1448 1452 1458 1460 1464 1467 1474 1469 1468 1471 1473 1475 1474 1475 1476 1476 1476 1477 1476 1476 1476 1475 1475
1351 1360 1369 1379 1389 1400 1405 1407 1408 1412 1418 1422 1428 1429 1433 1434 1437 1440 1442 1444 1445 1449 1452 1457 1460 1463 1465 1472 1467 1471 1473 1475 1475 1475 1474 1473 1475 1477 1478 1478 1478 1476 1474 1473
1356 1364 1374 1385 1396 1403 1407 1406 1408 1412 1419 1422 1423 1429 1433 1433 1435 1438 1440 1445 1447 1452 1456 1460 1461 1466 1467 1465 1468 1472 1474 1474 1475 1476 1475 1476 1477 1478 1479 1479 1477 1477 1477 1478
1362 1371 1381 1392 1401 1404 1404 1410 1415 1418 1424 1419 1419 1423 1429 1432 1437 1442 1446 1448 1452 1456 1458 1460 1462 1468 1464 1467 1471 1473 1474 1474 1475 1476 1477 1477 1478 1479 1479 1479 1480 1480 1482 1484
1372 1382 1390 1397 1400 1403 1406 1418 1420 1422 1421 1417 1419 1423 1427 1434 1439 1445 1448 1449 1452 1455 1460 1461 1462 1462 1469 1471 1472 1473 1474 1474 1475 1476 1478 1479 1480 1481 1482 1482 1484 1485 1486 1487
1376 1384 1392 1397 1400 1407 1413 1415 1412 1411 1413 1418 1422 1424 1426 1435 1438 1444 1448 1450 1453 1454 1455 1459 1460 1462 1468 1471 1473 1473 1474 1475 1475 1476 1478 1480 1481 1484 1485 1486 1487 1487 1487 1487
1381 1387 1398 1402 1404 1407 1410 1415 1417 1416 1420 1424 1425 1428 1431 1435 1437 1441 1447 1450 1453 1451 1456 1457 1453 1465 1468 1470 1472 1474 1475 1476 1477 1479 1481 1483 1485 1486 1486 1487 1487 1486 1486 1486
1384 1389 1393 1400 1408 1410 1412 1415 1419 1421 1424 1425 1426 1430 1432 1435 1438 1443 1445 1449 1449 1453 1454 1448 1455 1463 1467 1470 1473 1476 1478 1479 1481 1483 1484 1485 1485 1486 1486 1486 1486 1486 1486 1485
1390 1398 1408 1413 1416 1422 1424 1422 1422 1426 1426 1426 1427 1430 1434 1438 1441 1445 1444 1455 1454 1452 1450 1448 1459 1464 1467 1471 1474 1477 1479 1480 1482 1484 1485 1486 1486 1486 1486 1486 1486 1486 1486 1485
1404 1410 1417 1424 1429 1428 1427 1426 1427 1428 1428 1428 1430 1434 1436 1440 1443 1446 1450 1452 1447 1446 1446 1455 1460 1464 1468 1472 1475 1477 1479 1481 1483 1484 1485 1486 1486 1486 1486 1487 1487 1486 1486 1485
1414 1421 1425 1428 1428 1430 1429 1430 1430 1431 1431 1431 1434 1437 1439 1443 1444 1444 1442 1441 1437 1450 1456 1458 1461 1466 1469 1473 1475 1478 1480 1482 1483 1483 1484 1485 1486 1486 1486 1486 1486 1485 1484 1482
1424 1430 1429 1429 1431 1434 1435 1434 1435 1434 1435 1438 1439 1438 1443 1448 1444 1445 1448 1448 1453 1456 1458 1461 1464 1467 1471 1474 1475 1477 1479 1481 1481 1482 1483 1484 1484 1485 1485 1484 1484 1483 1481 1479